Hauptseite
METAR-TAF:

METAR-TAF

Flughäfen :

Flugplatz Melun-Villaroche

Melun, Frankreich

Breite: 48-37N, Länge: 002-41E, Höhe: 95 m

Beobachtung

Neuester Wetterbericht von vor 21 Minuten, um 23:30 UTC
Wind 12 kt aus Süd
Temperatur 1°C
Luftfeuchtigkeit 100%
Luftdruck 998 hPa
Sichtweite 10 km oder mehr
Geschlossene Wolkendecke in der Höhe von 500 ft
Leichtregen

METAR: LFPM 222330Z AUTO 19012KT 9999 -RA OVC005 01/01 Q0998

Zeit: 00:51 (23:51 UTC)


TAF: fehlend

Wetterbeobachtungen und Prognosen von mehr als 4000 Flughäfen (METAR und TAF Bericht).

Die verfügbaren Stationen werden durch gelbe und rote Markierungen auf der Karte dargestellt.

Führen Sie die Maus auf sie, um den Namen der Station zu sehen.

Darauf klicken, um die Beobachtung von Wetterbeobachtungen und Prognosen zu sehen.

Um die Karte zu ändern : klicken Sie auf den grünen Tasten mit einem schwarzen Kreuz Zum Vergrößern, auf den grünen Button mit einem Gedankenstrich zu verkleinern, oder auf die grünen Pfeile für benachbarte Karten.


METAR-TAF: